Regional Weather Roundup
Issued by NWS

Home | Current Version | Previous Version | Graphics & Text | Print | Product List | Glossary On
Versions: 1 2 3 4 5 6 7 8 9 10 11 12 13 14 15 16 17 18 19 20 21 22 23 24 25 26 27 28 29 30 31 32 33 34 35 36 37 38 39 40 41 42 43 44 45 46 47 48 49 50
000
ASUS43 KLOT 291110
RWRIL

ILLINOIS REGIONAL WEATHER ROUNDUP
NATIONAL WEATHER SERVICE CHICAGO/ROMEOVILLE IL
600 AM CDT FRI AUG 29 2014

NOTE: "FAIR" INDICATES FEW OR NO CLOUDS BELOW 12,000 FEET WITH NO
SIGNIFICANT WEATHER AND/OR OBSTRUCTIONS TO VISIBILITY.

* THESE STATIONS ARE NOT UNDER NWS QUALITY CONTROL. THEY ALSO MAY NOT
  REPORT WEATHER SUCH AS PRECIPITATION OR FOG.

ILZ001-002-007-009-015-016-024-291200-
NORTHWEST ILLINOIS

CITY           SKY/WX    TMP DP  RH WIND       PRES   REMARKS
MOLINE         PTCLDY    71  67  87 S12       29.91S
STERLING*      PTCLDY    66  64  94 SE3       29.95S
SAVANNA*       PTCLDY    67  65  93 CALM      29.92S FOG
$$

ILZ003-004-008-010-011-017-018-291200-
NORTH CENTRAL ILLINOIS

CITY           SKY/WX    TMP DP  RH WIND       PRES   REMARKS
ROCKFORD       HVY RAIN  68  66  93 S15       29.97S FOG
FREEPORT*      PTCLDY    64  63  96 SE6       29.96S FOG
ROCHELLE*      CLOUDY    68  66  93 SE3       29.96S
DE KALB*       MOCLDY    67  65  96 S7        29.98S
PERU*          CLOUDY    69  68  96 SE5       29.97R
$$

ILZ005-006-012>014-019>023-291200-
NORTHEAST ILLINOIS

CITY           SKY/WX    TMP DP  RH WIND       PRES   REMARKS
CHICAGO-OHARE  CLOUDY    71  64  78 S7        29.98R
CHICAGO-MIDWAY CLOUDY    73  66  78 S9        29.98S
AURORA         CLOUDY    69  66  90 SE3       29.98R FOG
LANSING*       CLOUDY    69  64  84 SE7       29.99S
JOLIET*        CLOUDY    69  66  90 SE3       29.98S
WAUKEGAN       CLOUDY    71  65  81 SE8       29.97S
DUPAGE AIRPORT CLOUDY    70  66  87 S7        29.97S
KANKAKEE*      CLOUDY    70  67  91 SE6       29.99S
WHEELING       CLOUDY    72  66  81 S6        29.99R
MORRIS*        CLOUDY    69  69 100 SE3       29.97S FOG
ROMEOVILLE*    CLOUDY    69  67  95 S6        29.98S
NORTHERLY ISL    N/A     71  64  78 S7          N/A
$$

LMZ740>746-291200-
SOUTHERN LAKE MICHIGAN

STATION/POSITION SKY/WX   TEMP    WIND        PRES    VSBY  WAVE
                          AIR SEA DIR/SP/G                  HT/PER
                          (F)     (DEG/KT/KT) (MB)    (MI)  (FT/S)
SOUTHERN BUOY              69 69  150/ 16/ 19 1015.4          2/ 4
WAUKEGAN HARBOR            72     170/ 10/ 11   N/A
HARRISON CRIB              71     160/ 14/ 17   N/A
BURNHAM HARBOR             71     140/  8/ 10   N/A
CALUMET HARBOR             71     160/  6/  9 1014.3R
MICHIGAN CITY              69     130/ 15/ 20   N/A
MICHIGAN CITY 6N           70 72  160/ 14/ 17   N/A           1/ 2
ST. JOSEPH                 69 70  140/ 12/ 17   N/A           1/ 3
$$

ILZ025>027-034>036-040-047-049-050-058-095>099-291200-
WEST-CENTRAL ILLINOIS

CITY           SKY/WX    TMP DP  RH WIND       PRES   REMARKS
QUINCY         PTCLDY    71  69  93 SE7       29.92F FOG
GALESBURG*     PTCLDY    68  67  96 SE5       29.94S
MACOMB*        PTCLDY    69  68  98 S7        29.96S
JACKSONVILLE*  MOCLDY    75  71  88 S6        29.96S
PITTSFIELD*    MOCLDY    72  70  92 SE5       29.95S FOG
$$

ILZ028>032-037-038-041>044-048-051>054-059>061-291200-
CENTRAL ILLINOIS

CITY           SKY/WX    TMP DP  RH WIND       PRES   REMARKS
PONTIAC        MOCLDY    72  70  94 CALM      29.97R
DECATUR        MOCLDY    72  69  90 SE7       29.98S
PEORIA         CLOUDY    73  68  84 S7        29.96R
LACON*         MOCLDY    69  67  93 CALM      29.95S
LINCOLN*       MOCLDY    71  69  93 S5        29.94S
SPRINGFIELD    MOCLDY    72  70  93 S3        29.96S
TAYLORVILLE    CLOUDY    70  70 100 SE3       29.97S
$$

ILZ033-039-045-046-055>057-062-063-291200-
EAST-CENTRAL ILLINOIS

CITY           SKY/WX    TMP DP  RH WIND       PRES   REMARKS
CHAMPAIGN      MOCLDY    70  69  97 SE7       29.99S FOG
DANVILLE*      CLOUDY    68  66  93 SE5       29.97F
RANTOUL*       MOCLDY    71  67  88 SE5       29.99S
MATTOON        MOCLDY    71  70  96 SE5       29.98S
PARIS*         PTCLDY    70  69  96 SE6       30.01S
$$

ILZ079-100>102-291200-
SOUTHWEST ILLINOIS

CITY           SKY/WX    TMP DP  RH WIND       PRES   REMARKS
BELLEVILLE     CLEAR     71  71 100 E5        29.95S
CAHOKIA*       CLEAR     72  71  97 CALM      29.95S FOG
SPARTA*        PTCLDY    70  69  98 CALM      29.98R FOG
$$

ILZ064>066-069>071-074>076-080>082-084>086-088>090-092>094-291200-
SOUTH-CENTRAL ILLINOIS

CITY           SKY/WX    TMP DP  RH WIND       PRES   REMARKS
CARBONDALE     CLEAR     69  67  93 CALM      29.97R FOG
CAIRO*         FOG       70  68  93 CALM      29.96R VSB<1/4
EFFINGHAM*     RAIN      72  69  90 SE3       29.99R
MARION         PTCLDY    72  70  94 CALM      29.98R FOG
MT. VERNON     CLEAR     72  66  83 CALM      29.98S
CENTRALIA*     PTCLDY    71  68  91 CALM      29.98R FOG
SALEM*         PTCLDY    74  72  96 CALM      29.98S FOG
METROPOLIS*      N/A     70  70 100 CALM      29.96S FOG
$$

ILZ067-068-072-073-078-083-087-091-291200-
SOUTHEAST ILLINOIS

CITY           SKY/WX    TMP DP  RH WIND       PRES   REMARKS
LAWRENCEVILLE  MOCLDY    74  72  93 E6        30.00R FOG
FLORA*         MOCLDY    73  71  95 CALM      29.99R
FAIRFIELD*     PTCLDY    73  72  94 CALM      29.98R FOG
HARRISBURG*    CLEAR     71  71 100 CALM      29.99R FOG
ROBINSON*      CLOUDY    75  73  94 E5        30.01R
CARMI*         CLEAR     70  70  99 CALM      29.97S FOG
$$

ABBREVIATIONS USED IN REMARKS
   TC - TEMPERATURE IN CELSIUS
  WCI - WIND CHILL INDEX
   HX - HEAT INDEX
  VSB - VISIBILITY
$$



USA.gov is the U.S. government's official web portal to all federal, state and local government web resources and services.